Showing default

OV3-3, 2389

Orbit data source: Space-Track

OV3-3, 2389 is a payload satellite owned by USAF OAR (US) in LEO that was launched on Thu, 04 Aug 1966 UTC via an SCOUT B launch vehicle from the Air Force Western Test Range (AFWTR). Payload-class satellites include a variety of spacecraft equipped with specific instruments for various scientific and technological missions. These include communications satellites like Starlink; space stations such as the ISS; scientific satellites like the Hubble; Earth observation satellites from companies like Planet Labs, Umbra, and HawkEye 360; GPS; miniature CubeSats for education and research; and military/defense satellites.

Loading next visibility...
Identifier
2389, 1966-070A
Orbit
LEO
Country
Flag of USUS
Related business
Manufacturer
Space General
Mission
Civil Science
Bus & Motor
OV3, Unknown motor
Mass
77 kg wet, 77 kg dry
Launch date (UTC)
1966-08-04 (59 years ago)
Launch vehicle
SCOUT B
Launch site
Air Force Western Test Range (AFWTR)
Object type
Payload
Rocket body
Debris
Shape & HBR
Oct Cyl + 2 Rod, 0.8 m
Radar Cross Section
0.548 m², Medium (>0.1 m² and < 1m²)

Expand to show TLE details & history
Last TLE update: 17 hours ago

TLE from 17 hours ago
0 OV3-3
1 02389U 66070A   25260.22259517  .00009570  00000-0  44186-3 0  9996
2 02389  81.3276 210.3290 1048159 141.7265 226.3230 13.36948981562375
Epoch: 2025-09-17T05:20Z
TLE epoch observation values (Epoch: 2025-09-17T05:20:32.222Z)
Latitude
-0.00001°
Longitude
133.7931°
Altitude
1,705.168 km
Speed
6.746 km/s
True Right ascension
14h 01m 18s
True Declination
0° 00' 00"
Sunlit
Object was in daylight at epoch
Visualization orbit readout
Latitude
Unknown
Longitude
Unknown
Altitude
Unknown
Speed
Unknown
Apparent Right ascension
Unknown
Apparent Declination
Unknown
Sunlit
N/A
Visualization observer readout
Local Sidereal Time
15:00:04
Azimuth
Unknown
Elevation
Unknown
Doppler factor
Unknown
Orbital elements
Apogee altitude
1,903.592 km
Perigee altitude
332.187 km
Semi-major axis
7,496.027 km
Eccentricity
0.10482
Inclination
81.3276°
RAAN
210.329°
Arg. of periapsis
141.7265°
True anomaly
218.38412°
Mean anomaly
226.323°
Eccentric anomaly
222.28257°
Mean motion
3.34423 °/min
Orbital period
107.65 mins
BSTAR
0.00044186
Loading maneuver chart data...
Computing Atmospheric mass density...
Loading historical data...
Loading historical data...
Loading historical data...
Loading historical data...
Loading historical data...
Loading historical data...
Loading historical data...
Other satellites on launch #70 in the year 1966 (1966-08-04 UTC)

Documentation

Showing up to 5 results
|